Location: El Bakhil
(32.7726°N, 5.5387°W)
Time: 18:55:52
(UTC+00:00)

Okean O Rocket - Pass Details

Date: 03 March 2021
Orbit: 623 x 644 km, 98.2° (Epoch: 09 April)

Event Time Altitude Azimuth Distance (km) Brightness Sun altitude
Rises 18:40:47 0° 184° (S) 2,893 5.1 -4.9°
Reaches altitude 10° 18:43:05 10° 192° (SSW) 1,988 4.4 -5.4°
Maximum altitude 18:47:07 39° 261° (W) 943 3.3 -6.3°
Drops below altitude 10° 18:51:11 10° 330° (NNW) 1,998 4.5 -7.1°
Sets 18:53:30 0° 339° (NNW) 2,908 5.3 -7.6°
